Content
SEND FEEDBACK

Daily
Averages
Monthly
Summary
United States of America

WAYNESVILLE, MISSOURI


Home > North America > United States > Missouri
Elevation: 858 feet     Latitude: 37 49N     Longitude: 092 13W

WEATHER
 
SELECT A DAY
Number of Records: 166,048;   Date Range: 1/1/95 - 7/22/14
 
SHARE

PRINT THIS DATA

[ ← Previous Day ]
WEATHER ALMANAC - JANUARY 6, 2013
[ Next Day → ]
[ °C ]   °F
Weather ElementAverageHighLow
Temperature30.8 °F37.2 °F (3:55 pm)22.8 °F (11:55 pm)
Dewpoint22.7 °F30.4 °F (1:55 am)18 °F (5:55 pm)
Humidity73 %90 % (3:55 am)51 % (3:55 pm)
Barometer30.30 in30.38 in (6:55 pm)30.17 in (1:55 am)
Wind Speed6.7 mph12.7 mph (7:55 am)
Wind Gust20.7 mph (7:55 am)
Weather ElementAverage
Visibility10 mi
Wind DirectionSSW (197 °)

Weather ElementTotal
Precipitation---
Heating Degree Days35 (Base 65)
Averaged from 27 records on January 6, 2013
WEATHER CONDITIONS BREAKOUT
WIND DIRECTION BREAKOUT
WEATHER BY HOUR - JANUARY 6, 2013
[ °C ]   °F
Local TimeTemperatureDewpointHumidityBarometerVisibilityWind DirectionWind SpeedGust SpeedPrecipitationEventsConditions
1:55 AM34.3 °F30.4 °F85 %30.17 in10.0 miWSW (250°)8.1 mphClear
2:55 AM32.9 °F29.5 °F87 %30.18 in10.0 miWest (260°)6.9 mphClear
3:55 AM31.3 °F28.8 °F90 %30.17 in10.0 miWSW (250°)8.1 mphClear
4:55 AM30.6 °F27.7 °F89 %30.17 in10.0 miWest (270°)8.1 mphClear
5:55 AM29.7 °F26.2 °F87 %30.20 in10.0 miWest (280°)8.1 mphClear
6:24 AM28.4 °F24.8 °F86 %30.22 in10.0 miWNW (290°)8.1 mph18.4 mphMostly Cloudy
6:55 AM29.3 °F25.3 °F85 %30.24 in10.0 miNW (310°)9.2 mph16.1 mphOvercast
7:55 AM27.9 °F22.5 °F80 %30.27 in10.0 miNW (320°)12.7 mph20.7 mphOvercast
8:55 AM27.9 °F21.9 °F78 %30.30 in10.0 miNNW (330°)11.5 mphOvercast
9:55 AM30.2 °F23.0 °F75 %30.32 in10.0 miNNW (330°)9.2 mphOvercast
10:17 AM30.2 °F23.0 °F75 %30.33 in10.0 miNNW (340°)11.5 mph17.3 mphScattered Clouds
10:55 AM31.8 °F23.4 °F71 %30.33 in10.0 miVariable5.8 mphScattered Clouds
11:04 AM32.0 °F23.0 °F69 %30.33 in10.0 miNW (320°)9.2 mphMostly Cloudy
11:13 AM33.8 °F23.0 °F65 %30.33 in10.0 miNW (320°)9.2 mph17.3 mphScattered Clouds
11:55 AM34.5 °F23.7 °F65 %30.32 in10.0 miNW (310°)12.7 mphClear
12:55 PM36.1 °F23.7 °F61 %30.32 in10.0 miVariable6.9 mphClear
1:55 PM37.0 °F22.6 °F56 %30.32 in10.0 miNW (320°)12.7 mphClear
2:55 PM37.0 °F21.6 °F54 %30.34 in10.0 miVariable5.8 mphClear
3:55 PM37.2 °F20.5 °F51 %30.35 in10.0 miNW (320°)5.8 mphClear
4:55 PM34.9 °F18.7 °F52 %30.36 in10.0 miCalmClear
5:55 PM31.3 °F18.0 °F58 %30.37 in10.0 miCalmClear
6:55 PM28.8 °F18.1 °F65 %30.38 in10.0 miCalmClear
7:55 PM27.5 °F18.5 °F69 %30.38 in10.0 miCalmClear
8:55 PM26.2 °F19.2 °F75 %30.38 in10.0 miCalmClear
9:55 PM25.0 °F19.6 °F80 %30.38 in10.0 miSouth (170°)3.5 mphClear
10:55 PM23.5 °F18.7 °F82 %30.38 in10.0 miSouth (170°)3.5 mphClear
11:55 PM22.8 °F18.0 °F82 %30.38 in10.0 miSSE (160°)3.5 mphClear
Hourly data recorded from KTBN, located miles away from Waynesville, Missouri







STORIES FROM OUR PARTNERS